MIDAS 3 DEB, 25793

Orbit data source: Space-Track

MIDAS 3 DEB, 25793 is space debris in LEO originally from a launch on Wed, 12 Jul 1961 UTC launched from the Air Force Western Test Range (AFWTR). Debris objects in space refer to the collection of defunct objects orbiting the Earth. Examples of debris include non-operational satellites, rocket bodies, and fragments generated from explosions, collisions, or faulty payload assembly.

Loading next visibility...
Identifier
25793, 1961-018F
Orbit
LEO
Country
Flag of USUS
Related business
Manufacturer
Unknown
Mission
Spacecraft
Bus & Motor
Unknown
Mass
Unknown
Launch date (UTC)
1961-07-12 (64 years ago)
Launch vehicle
Unknown
Launch site
Air Force Western Test Range (AFWTR)
Object type
Payload
Rocket body
Debris
Shape & HBR
Unknown shape, 1.1 m
Radar Cross Section
Medium (>0.1 m² and <1 m²)

Expand to show TLE details & history
Last TLE update: 1 day ago

TLE from 1 day ago
0 MIDAS 3 DEB
1 25793U 61018F   25302.71873588 -.00000003  00000-0 -15075-2 0  9996
2 25793  91.1420 209.0616 0130724 329.1055  30.2177  8.93207555381377
Epoch: 2025-10-29T17:14Z
TLE epoch observation values (Epoch: 2025-10-29T17:14:58.780Z)
Latitude
0.00003°
Longitude
-87.97116°
Altitude
3,325.896 km
Speed
6.446 km/s
True Right ascension
13h 56m 14s
True Declination
0° 00' 00"
Sunlit
Object was in daylight at epoch
Visualization orbit readout
Latitude
Unknown
Longitude
Unknown
Altitude
Unknown
Speed
Unknown
Apparent Right ascension
Unknown
Apparent Declination
Unknown
Sunlit
N/A
Visualization observer readout
Local Sidereal Time
16:29:36
Azimuth
Unknown
Elevation
Unknown
Doppler factor
Unknown
Orbital elements
Apogee altitude
3,560.079 km
Perigee altitude
3,303.599 km
Semi-major axis
9,809.976 km
Eccentricity
0.01307
Inclination
91.142°
RAAN
209.0616°
Arg. of periapsis
329.1055°
True anomaly
30.98239°
Mean anomaly
30.2177°
Eccentric anomaly
30.59896°
Mean motion
2.23378 °/min
Orbital period
161.16 mins
BSTAR
-0.0015075
Loading maneuver chart data...
Computing Atmospheric mass density...
Loading historical data...
Loading historical data...
Loading historical data...
Loading historical data...
Loading historical data...
Loading historical data...
Loading historical data...
Other satellites on launch #18 in the year 1961 (1961-07-12 UTC)

Documentation

Showing up to 5 results
|